DW9636 Weather Reports


Display with metric or nautical units.
time (UTC)temp
F
wind
direction
speed
MPH
gust
MPH
rain 1hr
in
rain 24hr
in
rain mn
in
humidity
%
barometer
mb
20240624133042 32 306 0.0 0.0 0.00 0.00 0.00 90 1012.8
20240624131542 31 306 0.0 0.0 0.00 0.00 0.00 89 1012.8
20240624130044 31 306 0.0 0.0 0.00 0.00 0.00 88 1012.6
20240624124536 31 306 0.0 0.0 0.00 0.00 0.00 88 1012.5
20240624123034 31 306 0.0 0.0 0.00 0.00 0.00 87 1012.3
20240624121531 32 306 0.0 0.0 0.00 0.00 0.00 86 1012.3
20240624120029 33 306 0.0 0.0 0.00 0.00 0.00 87 1012.1
20240624114530 33 306 0.0 0.0 0.00 0.00 0.00 87 1012.1
20240624113023 34 306 0.0 0.0 0.00 0.00 0.00 86 1012.0
20240624111522 35 306 0.0 0.0 0.00 0.00 0.00 86 1011.9
20240624110042 35 306 0.0 0.0 0.00 0.00 0.00 86 1012.0
20240624104523 36 306 0.0 0.0 0.00 0.00 0.00 85 1011.8
20240624103015 36 306 0.0 0.0 0.00 0.00 0.00 85 1011.8
20240624101511 37 306 0.0 0.0 0.00 0.00 0.00 85 1011.8
20240624100019 38 306 0.0 0.0 0.00 0.00 0.00 84 1011.8
20240624094506 38 307 0.0 0.0 0.00 0.00 0.00 84 1011.8
20240624093004 39 306 0.0 0.0 0.00 0.00 0.00 83 1011.5
20240624091501 39 307 0.0 0.0 0.00 0.00 0.00 82 1011.6
20240624090102 41 306 0.0 0.0 0.00 0.00 0.00 80 1011.5
20240624084557 42 307 0.0 0.0 0.00 0.00 0.00 80 1011.4
20240624083057 42 307 0.0 0.0 0.00 0.00 0.00 82 1011.3
20240624081601 42 306 0.0 0.0 0.00 0.00 0.00 83 1011.2
20240624080052 43 307 0.0 0.0 0.00 0.00 0.00 79 1011.1
20240624074545 44 307 0.0 0.0 0.00 0.00 0.00 77 1011.1
20240624073041 45 307 0.0 0.0 0.00 0.00 0.00 77 1011.0
20240624071537 46 307 0.0 0.0 0.00 0.00 0.00 75 1011.1
20240624070034 47 307 0.0 0.0 0.00 0.00 0.00 74 1011.1
20240624064535 48 306 0.0 0.0 0.00 0.00 0.00 72 1011.1
20240624063034 49 307 0.0 0.0 0.00 0.00 0.00 71 1011.0
20240624061532 50 307 0.0 0.0 0.00 0.00 0.00 69 1010.9
20240624060032 52 307 0.0 0.0 0.00 0.00 0.00 66 1010.8
20240624054533 53 307 0.0 0.0 0.00 0.00 0.00 64 1010.9
20240624053029 54 307 0.0 0.0 0.00 0.00 0.00 62 1010.8
20240624051529 56 307 0.0 0.0 0.00 0.00 0.00 60 1010.7
20240624050027 57 307 0.0 0.0 0.00 0.00 0.00 58 1010.7
20240624044525 59 307 0.0 0.0 0.00 0.00 0.00 55 1010.4
20240624043026 61 307 0.0 0.0 0.00 0.00 0.00 52 1010.2
20240624041524 62 307 0.0 0.0 0.00 0.00 0.00 50 1009.9
20240624040031 64 306 0.0 0.0 0.00 0.00 0.00 48 1009.7
20240624034532 65 321 0.0 0.0 0.00 0.00 0.00 45 1009.6
20240624033037 67 315 0.0 0.0 0.00 0.00 0.00 43 1009.4
20240624031522 68 315 0.0 0.0 0.00 0.00 0.00 41 1009.4
20240624030022 70 307 0.0 0.0 0.00 0.00 0.00 38 1009.2
20240624024521 71 296 0.0 0.0 0.00 0.00 0.00 34 1009.0
20240624023032 72 297 0.0 0.0 0.00 0.00 0.00 31 1008.9
20240624021542 73 310 0.0 0.0 0.00 0.00 0.00 30 1008.9
20240624020020 74 301 0.0 0.0 0.00 0.00 0.00 30 1008.7
20240624014519 75 314 1.0 0.0 0.00 0.00 0.00 29 1008.5
20240624013019 76 333 1.0 0.0 0.00 0.00 0.00 26 1008.4
20240624011523 77 335 1.0 0.0 0.00 0.00 0.00 25 1008.3
20240624010025 77 302 1.0 0.0 0.00 0.00 0.00 25 1008.2
20240624004517 78 315 1.0 0.0 0.00 0.00 0.00 24 1008.0
20240624003016 79 313 1.0 0.0 0.00 0.00 0.00 22 1008.0
20240624001515 80 281 1.0 0.0 0.00 0.00 0.00 21 1008.0
20240624000014 81 319 0.0 0.0 0.00 0.00 0.00 21 1008.1
20240623234515 82 325 1.0 0.0 0.00 0.00 0.00 17 1008.0
20240623233014 82 251 1.0 0.0 0.00 0.00 0.00 17 1008.0
20240623231512 82 304 1.0 0.0 0.00 0.00 0.00 17 1008.0
20240623230018 83 212 1.0 0.0 0.00 0.00 0.00 17 1007.9
20240623224522 83 309 1.0 0.0 0.00 0.00 0.00 15 1007.8
20240623223013 84 311 1.0 0.0 0.00 0.00 0.00 16 1008.0
20240623221512 83 294 1.0 0.0 0.00 0.00 0.00 16 1008.0
20240623220010 84 336 1.0 0.0 0.00 0.00 0.00 15 1008.0
20240623214509 85 292 1.0 0.0 0.00 0.00 0.00 16 1007.9
20240623213008 85 334 2.0 0.0 0.00 0.00 0.00 14 1008.0
20240623211510 84 329 1.0 0.0 0.00 0.00 0.00 13 1008.1
20240623210006 85 221 1.0 0.0 0.00 0.00 0.00 12 1008.1
20240623204507 84 344 1.0 0.0 0.00 0.00 0.00 14 1008.0
20240623203002 84 355 1.0 0.0 0.00 0.00 0.00 15 1008.1
20240623201612 82 241 1.0 0.0 0.00 0.00 0.00 16 1008.2
20240623200057 82 249 1.0 0.0 0.00 0.00 0.00 18 1008.4
20240623194553 80 182 0.0 0.0 0.00 0.00 0.00 21 1008.4
20240623193054 78 200 1.0 0.0 0.00 0.00 0.00 24 1008.6
20240623191555 78 236 0.0 0.0 0.00 0.00 0.00 23 1008.7
20240623190046 78 184 1.0 0.0 0.00 0.00 0.00 24 1008.8
20240623184544 76 220 0.0 0.0 0.00 0.00 0.00 28 1008.9
20240623183043 75 230 0.0 0.0 0.00 0.00 0.00 28 1008.9
20240623181543 73 188 0.0 0.0 0.00 0.00 0.00 30 1009.0
20240623180034 73 174 1.0 0.0 0.00 0.00 0.00 32 1009.1
20240623174548 71 184 1.0 0.0 0.00 0.00 0.00 33 1009.0
20240623173028 70 182 1.0 0.0 0.00 0.00 0.00 35 1009.1
20240623171525 70 291 0.0 0.0 0.00 0.00 0.00 39 1009.1
20240623170020 67 230 0.0 0.0 0.00 0.00 0.00 44 1009.2
20240623164517 66 256 0.0 0.0 0.00 0.00 0.00 47 1009.4
20240623163012 64 305 0.0 0.0 0.00 0.00 0.00 50 1009.6
20240623161509 63 294 0.0 0.0 0.00 0.00 0.00 52 1009.7
20240623160005 61 325 0.0 0.0 0.00 0.00 0.00 57 1009.8
20240623154501 58 325 0.0 0.0 0.00 0.00 0.00 63 1009.9
20240623153058 54 325 0.0 0.0 0.00 0.00 0.00 73 1010.0
20240623151603 51 327 0.0 0.0 0.00 0.00 0.00 81 1010.2
20240623150057 49 327 0.0 0.0 0.00 0.00 0.00 86 1010.1
20240623144556 45 327 0.0 0.0 0.00 0.00 0.00 89 1010.2
20240623143104 43 327 0.0 0.0 0.00 0.00 0.00 91 1010.1
20240623141557 41 327 0.0 0.0 0.00 0.00 0.00 92 1010.1
20240623140051 38 327 0.0 0.0 0.00 0.00 0.00 91 1010.1
20240623134549 37 327 0.0 0.0 0.00 0.00 0.00 89 1010.0